contact:dominique.lefevre@mio.osupytheas.fr, maurice.libes@osupytheas.fr, didier.mallarino@osupytheas.fr
Project:EMSO http://www.emso-fr.org/EMSO-France
Depth: 2436.0 m
Title:EMSO Ligure Ouest : Data MII capteur MICROCAT
DateTime_Computer,Latitude,Longitude,Temperature,Conductivity,Pressure,DateTime_Instrument
DateTime_Computer,Latitude,Longitude,degC,S m-1,dbar,DateTime_Instrument
2023-01-22T00:01:53Z,42.805,6.029,13.3015,4.60102,2470.507,2023-1-22T02:08:15Z
2023-01-22T00:04:56Z,42.805,6.029,13.3015,4.60092,2470.483,2023-1-22T02:11:19Z
2023-01-22T00:07:59Z,42.805,6.029,13.3016,4.60081,2470.53,2023-1-22T02:14:22Z
2023-01-22T00:11:02Z,42.805,6.029,13.3019,4.60084,2470.483,2023-1-22T02:17:25Z
2023-01-22T00:14:05Z,42.805,6.029,13.3014,4.60083,2470.553,2023-1-22T02:20:28Z
2023-01-22T00:17:08Z,42.805,6.029,13.3015,4.60087,2470.544,2023-1-22T02:23:31Z
2023-01-22T00:20:11Z,42.805,6.029,13.3019,4.60087,2470.507,2023-1-22T02:26:34Z
2023-01-22T00:23:14Z,42.805,6.029,13.3016,4.60082,2470.52,2023-1-22T02:29:37Z
2023-01-22T00:26:17Z,42.805,6.029,13.3015,4.60081,2470.474,2023-1-22T02:32:40Z
2023-01-22T00:29:21Z,42.805,6.029,13.3014,4.60079,2470.497,2023-1-22T02:35:43Z
2023-01-22T00:32:24Z,42.805,6.029,13.3015,4.60085,2470.507,2023-1-22T02:38:46Z
2023-01-22T00:35:27Z,42.805,6.029,13.3012,4.60080,2470.53,2023-1-22T02:41:49Z
2023-01-22T00:38:30Z,42.805,6.029,13.3013,4.60081,2470.47,2023-1-22T02:44:53Z
2023-01-22T00:41:33Z,42.805,6.029,13.3014,4.60083,2470.483,2023-1-22T02:47:56Z
2023-01-22T00:44:36Z,42.805,6.029,13.3015,4.60094,2470.507,2023-1-22T02:50:59Z
2023-01-22T00:47:39Z,42.805,6.029,13.3015,4.60092,2470.483,2023-1-22T02:54:02Z
2023-01-22T00:50:42Z,42.805,6.029,13.3013,4.60089,2470.507,2023-1-22T02:57:05Z
2023-01-22T00:53:45Z,42.805,6.029,13.3021,4.60095,2470.52,2023-1-22T03:00:08Z
2023-01-22T00:56:48Z,42.805,6.029,13.3019,4.60089,2470.497,2023-1-22T03:03:11Z
2023-01-22T00:59:51Z,42.805,6.029,13.3015,4.60087,2470.46,2023-1-22T03:06:14Z
2023-01-22T01:02:54Z,42.805,6.029,13.3015,4.60092,2470.46,2023-1-22T03:09:17Z
2023-01-22T01:05:58Z,42.805,6.029,13.3015,4.60092,2470.483,2023-1-22T03:12:20Z
2023-01-22T01:09:01Z,42.805,6.029,13.3015,4.60093,2470.483,2023-1-22T03:15:23Z
2023-01-22T01:12:04Z,42.805,6.029,13.3020,4.60079,2470.483,2023-1-22T03:18:27Z
2023-01-22T01:15:07Z,42.805,6.029,13.3014,4.60080,2470.507,2023-1-22T03:21:30Z
2023-01-22T01:18:10Z,42.805,6.029,13.3014,4.60081,2470.474,2023-1-22T03:24:33Z
2023-01-22T01:21:13Z,42.805,6.029,13.3017,4.60079,2470.474,2023-1-22T03:27:36Z
2023-01-22T01:24:16Z,42.805,6.029,13.3021,4.60079,2470.483,2023-1-22T03:30:39Z
2023-01-22T01:27:19Z,42.805,6.029,13.3015,4.60089,2470.474,2023-1-22T03:33:42Z
2023-01-22T01:30:22Z,42.805,6.029,13.3017,4.60081,2470.483,2023-1-22T03:36:45Z
2023-01-22T01:33:25Z,42.805,6.029,13.3017,4.60081,2470.483,2023-1-22T03:39:48Z
2023-01-22T01:36:28Z,42.805,6.029,13.3014,4.60079,2470.507,2023-1-22T03:42:51Z
2023-01-22T01:39:32Z,42.805,6.029,13.3021,4.60081,2470.483,2023-1-22T03:45:54Z
2023-01-22T01:42:35Z,42.805,6.029,13.3019,4.60081,2470.544,2023-1-22T03:48:57Z
2023-01-22T01:45:38Z,42.805,6.029,13.3014,4.60079,2470.483,2023-1-22T03:52:01Z
2023-01-22T01:48:41Z,42.805,6.029,13.3017,4.60076,2470.483,2023-1-22T03:55:04Z
2023-01-22T01:51:44Z,42.805,6.029,13.3012,4.60076,2470.497,2023-1-22T03:58:07Z
2023-01-22T01:54:47Z,42.805,6.029,13.3014,4.60081,2470.483,2023-1-22T04:01:10Z
2023-01-22T01:57:50Z,42.805,6.029,13.3018,4.60081,2470.483,2023-1-22T04:04:13Z
2023-01-22T02:00:53Z,42.805,6.029,13.3013,4.60079,2470.52,2023-1-22T04:07:16Z
2023-01-22T02:03:56Z,42.805,6.029,13.3015,4.60078,2470.497,2023-1-22T04:10:19Z
2023-01-22T02:06:59Z,42.805,6.029,13.3014,4.60077,2470.474,2023-1-22T04:13:22Z
2023-01-22T02:10:02Z,42.805,6.029,13.3013,4.60077,2470.483,2023-1-22T04:16:25Z
2023-01-22T02:13:06Z,42.805,6.029,13.3017,4.60078,2470.53,2023-1-22T04:19:28Z
2023-01-22T02:16:09Z,42.805,6.029,13.3015,4.60077,2470.507,2023-1-22T04:22:31Z
2023-01-22T02:19:12Z,42.805,6.029,13.3015,4.60079,2470.497,2023-1-22T04:25:35Z
2023-01-22T02:22:15Z,42.805,6.029,13.3016,4.60078,2470.483,2023-1-22T04:28:38Z
2023-01-22T02:25:18Z,42.805,6.029,13.3019,4.60077,2470.497,2023-1-22T04:31:41Z
2023-01-22T02:28:21Z,42.805,6.029,13.3016,4.60076,2470.507,2023-1-22T04:34:44Z
2023-01-22T02:31:24Z,42.805,6.029,13.3016,4.60073,2470.507,2023-1-22T04:37:47Z
2023-01-22T02:34:27Z,42.805,6.029,13.3024,4.60075,2470.483,2023-1-22T04:40:50Z
2023-01-22T02:37:30Z,42.805,6.029,13.3017,4.60077,2470.53,2023-1-22T04:43:53Z
2023-01-22T02:40:33Z,42.805,6.029,13.3015,4.60075,2470.53,2023-1-22T04:46:56Z
2023-01-22T02:43:36Z,42.805,6.029,13.3017,4.60074,2470.483,2023-1-22T04:49:59Z
2023-01-22T02:46:40Z,42.805,6.029,13.3017,4.60075,2470.544,2023-1-22T04:53:02Z
2023-01-22T02:49:43Z,42.805,6.029,13.3015,4.60074,2470.507,2023-1-22T04:56:05Z
2023-01-22T02:52:46Z,42.805,6.029,13.3019,4.60073,2470.53,2023-1-22T04:59:08Z
2023-01-22T02:55:49Z,42.805,6.029,13.3019,4.60073,2470.577,2023-1-22T05:02:12Z
2023-01-22T02:58:52Z,42.805,6.029,13.3019,4.60074,2470.507,2023-1-22T05:05:15Z
2023-01-22T03:01:55Z,42.805,6.029,13.3019,4.60074,2470.53,2023-1-22T05:08:18Z
2023-01-22T03:04:58Z,42.805,6.029,13.3014,4.60077,2470.507,2023-1-22T05:11:21Z
2023-01-22T03:08:01Z,42.805,6.029,13.3016,4.60074,2470.553,2023-1-22T05:14:24Z
2023-01-22T03:11:04Z,42.805,6.029,13.3015,4.60074,2470.553,2023-1-22T05:17:27Z
2023-01-22T03:14:07Z,42.805,6.029,13.3014,4.60074,2470.544,2023-1-22T05:20:30Z
2023-01-22T03:17:10Z,42.805,6.029,13.3017,4.60074,2470.544,2023-1-22T05:23:33Z
2023-01-22T03:20:13Z,42.805,6.029,13.3015,4.60073,2470.553,2023-1-22T05:26:36Z
2023-01-22T03:23:16Z,42.805,6.029,13.3015,4.60073,2470.53,2023-1-22T05:29:39Z
2023-01-22T03:26:20Z,42.805,6.029,13.3016,4.60080,2470.53,2023-1-22T05:32:42Z
2023-01-22T03:29:23Z,42.805,6.029,13.3021,4.60074,2470.553,2023-1-22T05:35:46Z
2023-01-22T03:32:26Z,42.805,6.029,13.3015,4.60077,2470.553,2023-1-22T05:38:49Z
2023-01-22T03:35:29Z,42.805,6.029,13.3017,4.60074,2470.553,2023-1-22T05:41:52Z
2023-01-22T03:38:32Z,42.805,6.029,13.3014,4.60078,2470.577,2023-1-22T05:44:55Z
2023-01-22T03:41:35Z,42.805,6.029,13.3016,4.60076,2470.553,2023-1-22T05:47:58Z
2023-01-22T03:44:38Z,42.805,6.029,13.3017,4.60075,2470.614,2023-1-22T05:51:01Z
2023-01-22T03:47:41Z,42.805,6.029,13.3015,4.60077,2470.614,2023-1-22T05:54:04Z
2023-01-22T03:50:44Z,42.805,6.029,13.3014,4.60075,2470.591,2023-1-22T05:57:07Z
2023-01-22T03:53:47Z,42.805,6.029,13.3014,4.60075,2470.6,2023-1-22T06:00:10Z
2023-01-22T03:56:50Z,42.805,6.029,13.3015,4.60071,2470.6,2023-1-22T06:03:13Z
2023-01-22T03:59:54Z,42.805,6.029,13.3018,4.60073,2470.577,2023-1-22T06:06:16Z
2023-01-22T04:02:57Z,42.805,6.029,13.3018,4.60073,2470.624,2023-1-22T06:09:20Z
2023-01-22T04:06:00Z,42.805,6.029,13.3020,4.60073,2470.624,2023-1-22T06:12:23Z
2023-01-22T04:09:03Z,42.805,6.029,13.3014,4.60072,2470.577,2023-1-22T06:15:26Z
2023-01-22T04:12:06Z,42.805,6.029,13.3018,4.60074,2470.614,2023-1-22T06:18:29Z
2023-01-22T04:15:09Z,42.805,6.029,13.3017,4.60074,2470.6,2023-1-22T06:21:32Z
2023-01-22T04:18:12Z,42.805,6.029,13.3015,4.60076,2470.624,2023-1-22T06:24:35Z
2023-01-22T04:21:15Z,42.805,6.029,13.3017,4.60077,2470.624,2023-1-22T06:27:38Z
2023-01-22T04:24:18Z,42.805,6.029,13.3016,4.60079,2470.6,2023-1-22T06:30:41Z
2023-01-22T04:27:21Z,42.805,6.029,13.3016,4.60075,2470.6,2023-1-22T06:33:44Z
2023-01-22T04:30:24Z,42.805,6.029,13.3015,4.60076,2470.661,2023-1-22T06:36:47Z
2023-01-22T04:33:27Z,42.805,6.029,13.3015,4.60077,2470.661,2023-1-22T06:39:50Z
2023-01-22T04:36:31Z,42.805,6.029,13.3013,4.60081,2470.624,2023-1-22T06:42:53Z
2023-01-22T04:39:34Z,42.805,6.029,13.3017,4.60074,2470.67,2023-1-22T06:45:57Z
2023-01-22T04:42:37Z,42.805,6.029,13.3014,4.60074,2470.684,2023-1-22T06:49:00Z
2023-01-22T04:45:40Z,42.805,6.029,13.3016,4.60074,2470.67,2023-1-22T06:52:03Z
2023-01-22T04:48:43Z,42.805,6.029,13.3017,4.60074,2470.646,2023-1-22T06:55:06Z
2023-01-22T04:51:46Z,42.805,6.029,13.3014,4.60078,2470.721,2023-1-22T06:58:09Z
2023-01-22T04:54:49Z,42.805,6.029,13.3016,4.60077,2470.684,2023-1-22T07:01:12Z
2023-01-22T04:57:52Z,42.805,6.029,13.3020,4.60074,2470.684,2023-1-22T07:04:15Z
2023-01-22T05:00:55Z,42.805,6.029,13.3016,4.60079,2470.67,2023-1-22T07:07:18Z
2023-01-22T05:03:58Z,42.805,6.029,13.3017,4.60076,2470.693,2023-1-22T07:10:21Z
2023-01-22T05:07:01Z,42.805,6.029,13.3018,4.60073,2470.717,2023-1-22T07:13:24Z
2023-01-22T05:10:05Z,42.805,6.029,13.3017,4.60076,2470.693,2023-1-22T07:16:27Z
2023-01-22T05:13:08Z,42.805,6.029,13.3017,4.60076,2470.693,2023-1-22T07:19:31Z
2023-01-22T05:16:11Z,42.805,6.029,13.3019,4.60072,2470.693,2023-1-22T07:22:34Z
2023-01-22T05:19:14Z,42.805,6.029,13.3015,4.60077,2470.693,2023-1-22T07:25:37Z
2023-01-22T05:22:17Z,42.805,6.029,13.3014,4.60070,2470.717,2023-1-22T07:28:40Z
2023-01-22T05:25:20Z,42.805,6.029,13.3015,4.60070,2470.754,2023-1-22T07:31:43Z
2023-01-22T05:28:23Z,42.805,6.029,13.3012,4.60071,2470.693,2023-1-22T07:34:46Z
2023-01-22T05:31:26Z,42.805,6.029,13.3015,4.60078,2470.717,2023-1-22T07:37:49Z
2023-01-22T05:34:29Z,42.805,6.029,13.3013,4.60074,2470.74,2023-1-22T07:40:52Z
2023-01-22T05:37:32Z,42.805,6.029,13.3019,4.60078,2470.717,2023-1-22T07:43:55Z
2023-01-22T05:40:35Z,42.805,6.029,13.3015,4.60073,2470.717,2023-1-22T07:46:58Z
2023-01-22T05:43:38Z,42.805,6.029,13.3014,4.60078,2470.707,2023-1-22T07:50:01Z
2023-01-22T05:46:42Z,42.805,6.029,13.3018,4.60069,2470.763,2023-1-22T07:53:05Z
2023-01-22T05:49:45Z,42.805,6.029,13.3019,4.60077,2470.763,2023-1-22T07:56:08Z
2023-01-22T05:52:48Z,42.805,6.029,13.3018,4.60074,2470.74,2023-1-22T07:59:11Z
2023-01-22T05:55:51Z,42.805,6.029,13.3019,4.60070,2470.763,2023-1-22T08:02:14Z
2023-01-22T05:58:54Z,42.805,6.029,13.3014,4.60076,2470.74,2023-1-22T08:05:17Z
2023-01-22T06:01:57Z,42.805,6.029,13.3019,4.60074,2470.74,2023-1-22T08:08:20Z
2023-01-22T06:05:00Z,42.805,6.029,13.3017,4.60073,2470.754,2023-1-22T08:11:23Z
2023-01-22T06:08:03Z,42.805,6.029,13.3014,4.60075,2470.763,2023-1-22T08:14:26Z
2023-01-22T06:11:06Z,42.805,6.029,13.3019,4.60076,2470.777,2023-1-22T08:17:29Z
2023-01-22T06:14:09Z,42.805,6.029,13.3017,4.60072,2470.787,2023-1-22T08:20:32Z
2023-01-22T06:17:12Z,42.805,6.029,13.3016,4.60078,2470.763,2023-1-22T08:23:35Z
2023-01-22T06:20:16Z,42.805,6.029,13.3016,4.60078,2470.777,2023-1-22T08:26:38Z
2023-01-22T06:23:19Z,42.805,6.029,13.3015,4.60072,2470.726,2023-1-22T08:29:42Z
2023-01-22T06:26:22Z,42.805,6.029,13.3014,4.60073,2470.8,2023-1-22T08:32:45Z
2023-01-22T06:29:25Z,42.805,6.029,13.3020,4.60072,2470.8,2023-1-22T08:35:48Z
2023-01-22T06:32:28Z,42.805,6.029,13.3016,4.60074,2470.8,2023-1-22T08:38:51Z
2023-01-22T06:35:31Z,42.805,6.029,13.3015,4.60074,2470.787,2023-1-22T08:41:54Z
2023-01-22T06:38:34Z,42.805,6.029,13.3019,4.60077,2470.787,2023-1-22T08:44:57Z
2023-01-22T06:41:37Z,42.805,6.029,13.3019,4.60071,2470.787,2023-1-22T08:48:00Z
2023-01-22T06:44:40Z,42.805,6.029,13.3016,4.60073,2470.81,2023-1-22T08:51:03Z
2023-01-22T06:47:43Z,42.805,6.029,13.3020,4.60072,2470.787,2023-1-22T08:54:06Z
2023-01-22T06:50:46Z,42.805,6.029,13.3021,4.60077,2470.777,2023-1-22T08:57:09Z
2023-01-22T06:53:49Z,42.805,6.029,13.3019,4.60075,2470.81,2023-1-22T09:00:12Z
2023-01-22T06:56:53Z,42.805,6.029,13.3015,4.60075,2470.833,2023-1-22T09:03:16Z
2023-01-22T06:59:56Z,42.805,6.029,13.3018,4.60070,2470.787,2023-1-22T09:06:19Z
2023-01-22T07:02:59Z,42.805,6.029,13.3017,4.60072,2470.787,2023-1-22T09:09:22Z
2023-01-22T07:06:02Z,42.805,6.029,13.3020,4.60074,2470.787,2023-1-22T09:12:25Z
2023-01-22T07:09:05Z,42.805,6.029,13.3019,4.60071,2470.763,2023-1-22T09:15:28Z
2023-01-22T07:12:08Z,42.805,6.029,13.3018,4.60072,2470.787,2023-1-22T09:18:31Z
2023-01-22T07:15:11Z,42.805,6.029,13.3018,4.60072,2470.824,2023-1-22T09:21:34Z
2023-01-22T07:18:14Z,42.805,6.029,13.3016,4.60073,2470.824,2023-1-22T09:24:37Z
2023-01-22T07:21:17Z,42.805,6.029,13.3019,4.60075,2470.787,2023-1-22T09:27:40Z
2023-01-22T07:24:20Z,42.805,6.029,13.3019,4.60074,2470.824,2023-1-22T09:30:43Z
2023-01-22T07:27:23Z,42.805,6.029,13.3019,4.60070,2470.787,2023-1-22T09:33:46Z
2023-01-22T07:30:27Z,42.805,6.029,13.3020,4.60082,2470.824,2023-1-22T09:36:50Z
2023-01-22T07:33:30Z,42.805,6.029,13.3016,4.60070,2470.833,2023-1-22T09:39:53Z
2023-01-22T07:36:33Z,42.805,6.029,13.3019,4.60081,2470.824,2023-1-22T09:42:56Z
2023-01-22T07:39:36Z,42.805,6.029,13.3017,4.60073,2470.824,2023-1-22T09:45:59Z
2023-01-22T07:42:39Z,42.805,6.029,13.3020,4.60074,2470.787,2023-1-22T09:49:02Z
2023-01-22T07:45:42Z,42.805,6.029,13.3015,4.60078,2470.81,2023-1-22T09:52:05Z
2023-01-22T07:48:45Z,42.805,6.029,13.3017,4.60074,2470.81,2023-1-22T09:55:08Z
2023-01-22T07:51:48Z,42.805,6.029,13.3014,4.60079,2470.847,2023-1-22T09:58:11Z
2023-01-22T07:54:51Z,42.805,6.029,13.3018,4.60075,2470.824,2023-1-22T10:01:14Z
2023-01-22T07:57:54Z,42.805,6.029,13.3016,4.60074,2470.833,2023-1-22T10:04:17Z
2023-01-22T08:00:57Z,42.805,6.029,13.3021,4.60074,2470.81,2023-1-22T10:07:20Z
2023-01-22T08:04:00Z,42.805,6.029,13.3019,4.60073,2470.857,2023-1-22T10:10:24Z
2023-01-22T08:07:04Z,42.805,6.029,13.3015,4.60080,2470.833,2023-1-22T10:13:27Z
2023-01-22T08:10:07Z,42.805,6.029,13.3019,4.60073,2470.847,2023-1-22T10:16:30Z
2023-01-22T08:13:10Z,42.805,6.029,13.3016,4.60076,2470.787,2023-1-22T10:19:33Z
2023-01-22T08:16:13Z,42.805,6.029,13.3015,4.60074,2470.833,2023-1-22T10:22:36Z
2023-01-22T08:19:16Z,42.805,6.029,13.3019,4.60074,2470.824,2023-1-22T10:25:39Z
2023-01-22T08:22:19Z,42.805,6.029,13.3015,4.60072,2470.833,2023-1-22T10:28:42Z
2023-01-22T08:25:22Z,42.805,6.029,13.3017,4.60074,2470.787,2023-1-22T10:31:45Z
2023-01-22T08:28:25Z,42.805,6.029,13.3015,4.60071,2470.81,2023-1-22T10:34:48Z
2023-01-22T08:31:28Z,42.805,6.029,13.3021,4.60078,2470.81,2023-1-22T10:37:51Z
2023-01-22T08:34:31Z,42.805,6.029,13.3015,4.60082,2470.81,2023-1-22T10:40:54Z
2023-01-22T08:37:34Z,42.805,6.029,13.3019,4.60072,2470.833,2023-1-22T10:43:58Z
2023-01-22T08:40:38Z,42.805,6.029,13.3016,4.60078,2470.824,2023-1-22T10:47:01Z
2023-01-22T08:43:41Z,42.805,6.029,13.3020,4.60081,2470.81,2023-1-22T10:50:04Z
2023-01-22T08:46:44Z,42.805,6.029,13.3015,4.60086,2470.81,2023-1-22T10:53:07Z
2023-01-22T08:49:47Z,42.805,6.029,13.3017,4.60073,2470.8,2023-1-22T10:56:10Z
2023-01-22T08:52:50Z,42.805,6.029,13.3020,4.60082,2470.777,2023-1-22T10:59:13Z
2023-01-22T08:55:53Z,42.805,6.029,13.3015,4.60084,2470.81,2023-1-22T11:02:16Z
2023-01-22T08:58:56Z,42.805,6.029,13.3016,4.60074,2470.81,2023-1-22T11:05:19Z
2023-01-22T09:01:59Z,42.805,6.029,13.3019,4.60080,2470.796,2023-1-22T11:08:22Z
2023-01-22T09:05:02Z,42.805,6.029,13.3014,4.60081,2470.81,2023-1-22T11:11:25Z
2023-01-22T09:08:05Z,42.805,6.029,13.3018,4.60077,2470.787,2023-1-22T11:14:28Z
2023-01-22T09:11:08Z,42.805,6.029,13.3020,4.60073,2470.787,2023-1-22T11:17:32Z
2023-01-22T09:14:12Z,42.805,6.029,13.3014,4.60076,2470.8,2023-1-22T11:20:35Z
2023-01-22T09:17:15Z,42.805,6.029,13.3018,4.60087,2470.787,2023-1-22T11:23:38Z
2023-01-22T09:20:18Z,42.805,6.029,13.3015,4.60079,2470.8,2023-1-22T11:26:41Z
2023-01-22T09:23:21Z,42.805,6.029,13.3016,4.60074,2470.763,2023-1-22T11:29:44Z
2023-01-22T09:26:24Z,42.805,6.029,13.3017,4.60073,2470.763,2023-1-22T11:32:47Z
2023-01-22T09:29:27Z,42.805,6.029,13.3016,4.60073,2470.777,2023-1-22T11:35:50Z
2023-01-22T09:32:30Z,42.805,6.029,13.3015,4.60078,2470.81,2023-1-22T11:38:53Z
2023-01-22T09:35:33Z,42.805,6.029,13.3019,4.60076,2470.81,2023-1-22T11:41:56Z
2023-01-22T09:38:36Z,42.805,6.029,13.3015,4.60075,2470.81,2023-1-22T11:44:59Z
2023-01-22T09:41:39Z,42.805,6.029,13.3021,4.60076,2470.74,2023-1-22T11:48:02Z
2023-01-22T09:44:42Z,42.805,6.029,13.3019,4.60084,2470.777,2023-1-22T11:51:06Z
2023-01-22T09:47:46Z,42.805,6.029,13.3016,4.60084,2470.777,2023-1-22T11:54:09Z
2023-01-22T09:50:49Z,42.805,6.029,13.3017,4.60078,2470.763,2023-1-22T11:57:12Z
2023-01-22T09:53:52Z,42.805,6.029,13.3018,4.60075,2470.763,2023-1-22T12:00:15Z
2023-01-22T09:56:55Z,42.805,6.029,13.3015,4.60082,2470.74,2023-1-22T12:03:18Z
2023-01-22T09:59:58Z,42.805,6.029,13.3014,4.60080,2470.8,2023-1-22T12:06:21Z
2023-01-22T10:03:01Z,42.805,6.029,13.3019,4.60088,2470.763,2023-1-22T12:09:24Z
2023-01-22T10:06:04Z,42.805,6.029,13.3024,4.60082,2470.754,2023-1-22T12:12:27Z
2023-01-22T10:09:07Z,42.805,6.029,13.3015,4.60085,2470.787,2023-1-22T12:15:30Z
2023-01-22T10:12:10Z,42.805,6.029,13.3016,4.60077,2470.754,2023-1-22T12:18:33Z
2023-01-22T10:15:13Z,42.805,6.029,13.3015,4.60078,2470.74,2023-1-22T12:21:36Z
2023-01-22T10:18:16Z,42.805,6.029,13.3018,4.60076,2470.717,2023-1-22T12:24:40Z
2023-01-22T10:21:20Z,42.805,6.029,13.3017,4.60083,2470.763,2023-1-22T12:27:43Z
2023-01-22T10:24:23Z,42.805,6.029,13.3016,4.60079,2470.73,2023-1-22T12:30:46Z
2023-01-22T10:27:26Z,42.805,6.029,13.3015,4.60076,2470.74,2023-1-22T12:33:49Z
2023-01-22T10:30:29Z,42.805,6.029,13.3018,4.60079,2470.74,2023-1-22T12:36:52Z
2023-01-22T10:33:32Z,42.805,6.029,13.3020,4.60079,2470.73,2023-1-22T12:39:55Z
2023-01-22T10:36:35Z,42.805,6.029,13.3019,4.60087,2470.74,2023-1-22T12:42:58Z
2023-01-22T10:39:38Z,42.805,6.029,13.3019,4.60078,2470.74,2023-1-22T12:46:01Z
2023-01-22T10:42:41Z,42.805,6.029,13.3018,4.60077,2470.717,2023-1-22T12:49:04Z
2023-01-22T10:45:44Z,42.805,6.029,13.3015,4.60082,2470.693,2023-1-22T12:52:07Z
2023-01-22T10:48:47Z,42.805,6.029,13.3015,4.60077,2470.693,2023-1-22T12:55:11Z
2023-01-22T10:51:51Z,42.805,6.029,13.3017,4.60074,2470.754,2023-1-22T12:58:14Z
2023-01-22T10:54:54Z,42.805,6.029,13.3014,4.60079,2470.73,2023-1-22T13:01:17Z
2023-01-22T10:57:57Z,42.805,6.029,13.3019,4.60077,2470.707,2023-1-22T13:04:20Z
2023-01-22T11:01:00Z,42.805,6.029,13.3021,4.60077,2470.717,2023-1-22T13:07:23Z
2023-01-22T11:04:03Z,42.805,6.029,13.3015,4.60076,2470.717,2023-1-22T13:10:26Z
2023-01-22T11:07:06Z,42.805,6.029,13.3019,4.60077,2470.754,2023-1-22T13:13:29Z
2023-01-22T11:10:09Z,42.805,6.029,13.3021,4.60079,2470.693,2023-1-22T13:16:32Z
2023-01-22T11:13:12Z,42.805,6.029,13.3019,4.60077,2470.684,2023-1-22T13:19:35Z
2023-01-22T11:16:15Z,42.805,6.029,13.3019,4.60075,2470.717,2023-1-22T13:22:38Z
2023-01-22T11:19:18Z,42.805,6.029,13.3017,4.60077,2470.693,2023-1-22T13:25:41Z
2023-01-22T11:22:21Z,42.805,6.029,13.3019,4.60079,2470.67,2023-1-22T13:28:45Z
2023-01-22T11:25:24Z,42.805,6.029,13.3020,4.60077,2470.656,2023-1-22T13:31:48Z
2023-01-22T11:28:28Z,42.805,6.029,13.3016,4.60076,2470.707,2023-1-22T13:34:51Z
2023-01-22T11:31:31Z,42.805,6.029,13.3014,4.60076,2470.684,2023-1-22T13:37:54Z
2023-01-22T11:34:34Z,42.805,6.029,13.3016,4.60075,2470.707,2023-1-22T13:40:57Z
2023-01-22T11:37:37Z,42.805,6.029,13.3017,4.60078,2470.717,2023-1-22T13:44:00Z
2023-01-22T11:40:40Z,42.805,6.029,13.3017,4.60079,2470.73,2023-1-22T13:47:03Z
2023-01-22T11:43:43Z,42.805,6.029,13.3019,4.60080,2470.67,2023-1-22T13:50:06Z
2023-01-22T11:46:46Z,42.805,6.029,13.3017,4.60079,2470.646,2023-1-22T13:53:09Z
2023-01-22T11:49:49Z,42.805,6.029,13.3023,4.60077,2470.684,2023-1-22T13:56:12Z
2023-01-22T11:52:52Z,42.805,6.029,13.3014,4.60078,2470.67,2023-1-22T13:59:15Z
2023-01-22T11:55:55Z,42.805,6.029,13.3015,4.60078,2470.67,2023-1-22T14:02:19Z
2023-01-22T11:58:59Z,42.805,6.029,13.3018,4.60075,2470.67,2023-1-22T14:05:22Z
2023-01-22T12:02:02Z,42.805,6.029,13.3015,4.60078,2470.656,2023-1-22T14:08:25Z
2023-01-22T12:05:05Z,42.805,6.029,13.3018,4.60081,2470.661,2023-1-22T14:11:28Z
2023-01-22T12:08:08Z,42.805,6.029,13.3017,4.60077,2470.646,2023-1-22T14:14:31Z
2023-01-22T12:11:11Z,42.805,6.029,13.3019,4.60081,2470.684,2023-1-22T14:17:34Z
2023-01-22T12:14:14Z,42.805,6.029,13.3016,4.60076,2470.646,2023-1-22T14:20:37Z
2023-01-22T12:17:17Z,42.805,6.029,13.3020,4.60075,2470.646,2023-1-22T14:23:40Z
2023-01-22T12:20:20Z,42.805,6.029,13.3021,4.60079,2470.624,2023-1-22T14:26:43Z
2023-01-22T12:23:23Z,42.805,6.029,13.3021,4.60078,2470.624,2023-1-22T14:29:46Z
2023-01-22T12:26:26Z,42.805,6.029,13.3017,4.60079,2470.624,2023-1-22T14:32:49Z
2023-01-22T12:29:29Z,42.805,6.029,13.3020,4.60081,2470.637,2023-1-22T14:35:53Z
2023-01-22T12:32:33Z,42.805,6.029,13.3021,4.60075,2470.624,2023-1-22T14:38:56Z
2023-01-22T12:35:36Z,42.805,6.029,13.3014,4.60079,2470.661,2023-1-22T14:41:59Z
2023-01-22T12:38:39Z,42.805,6.029,13.3015,4.60079,2470.624,2023-1-22T14:45:02Z
2023-01-22T12:41:42Z,42.805,6.029,13.3015,4.60079,2470.614,2023-1-22T14:48:05Z
2023-01-22T12:44:45Z,42.805,6.029,13.3015,4.60075,2470.624,2023-1-22T14:51:08Z
2023-01-22T12:47:48Z,42.805,6.029,13.3019,4.60075,2470.624,2023-1-22T14:54:11Z
2023-01-22T12:50:51Z,42.805,6.029,13.3019,4.60076,2470.637,2023-1-22T14:57:14Z
2023-01-22T12:53:54Z,42.805,6.029,13.3015,4.60077,2470.6,2023-1-22T15:00:17Z
2023-01-22T12:56:57Z,42.805,6.029,13.3023,4.60078,2470.624,2023-1-22T15:03:20Z
2023-01-22T13:00:00Z,42.805,6.029,13.3017,4.60078,2470.6,2023-1-22T15:06:24Z
2023-01-22T13:03:03Z,42.805,6.029,13.3015,4.60079,2470.6,2023-1-22T15:09:27Z
2023-01-22T13:06:06Z,42.805,6.029,13.3019,4.60077,2470.624,2023-1-22T15:12:30Z
2023-01-22T13:09:10Z,42.805,6.029,13.3019,4.60078,2470.614,2023-1-22T15:15:33Z
2023-01-22T13:12:13Z,42.805,6.029,13.3014,4.60075,2470.624,2023-1-22T15:18:36Z
2023-01-22T13:15:16Z,42.805,6.029,13.3016,4.60079,2470.614,2023-1-22T15:21:39Z
2023-01-22T13:18:19Z,42.805,6.029,13.3021,4.60078,2470.614,2023-1-22T15:24:42Z
2023-01-22T13:21:22Z,42.805,6.029,13.3019,4.60076,2470.577,2023-1-22T15:27:45Z
2023-01-22T13:24:25Z,42.805,6.029,13.3015,4.60075,2470.591,2023-1-22T15:30:48Z
2023-01-22T13:27:28Z,42.805,6.029,13.3015,4.60075,2470.567,2023-1-22T15:33:51Z
2023-01-22T13:30:31Z,42.805,6.029,13.3019,4.60081,2470.614,2023-1-22T15:36:54Z
2023-01-22T13:33:34Z,42.805,6.029,13.3017,4.60076,2470.6,2023-1-22T15:39:58Z
2023-01-22T13:36:37Z,42.805,6.029,13.3015,4.60074,2470.614,2023-1-22T15:43:01Z
2023-01-22T13:39:41Z,42.805,6.029,13.3019,4.60077,2470.577,2023-1-22T15:46:04Z
2023-01-22T13:42:44Z,42.805,6.029,13.3016,4.60076,2470.577,2023-1-22T15:49:07Z
2023-01-22T13:45:47Z,42.805,6.029,13.3016,4.60084,2470.577,2023-1-22T15:52:10Z
2023-01-22T13:48:50Z,42.805,6.029,13.3019,4.60081,2470.577,2023-1-22T15:55:13Z
2023-01-22T13:51:53Z,42.805,6.029,13.3017,4.60076,2470.577,2023-1-22T15:58:16Z
2023-01-22T13:54:56Z,42.805,6.029,13.3023,4.60075,2470.53,2023-1-22T16:01:19Z
2023-01-22T13:57:59Z,42.805,6.029,13.3019,4.60074,2470.6,2023-1-22T16:04:22Z
2023-01-22T14:01:02Z,42.805,6.029,13.3015,4.60074,2470.553,2023-1-22T16:07:25Z
2023-01-22T14:04:05Z,42.805,6.029,13.3016,4.60076,2470.577,2023-1-22T16:10:28Z
2023-01-22T14:07:08Z,42.805,6.029,13.3016,4.60074,2470.53,2023-1-22T16:13:32Z
2023-01-22T14:10:11Z,42.805,6.029,13.3020,4.60076,2470.6,2023-1-22T16:16:35Z
2023-01-22T14:13:15Z,42.805,6.029,13.3016,4.60080,2470.577,2023-1-22T16:19:38Z
2023-01-22T14:16:18Z,42.805,6.029,13.3019,4.60075,2470.577,2023-1-22T16:22:41Z
2023-01-22T14:19:21Z,42.805,6.029,13.3015,4.60080,2470.577,2023-1-22T16:25:44Z
2023-01-22T14:22:24Z,42.805,6.029,13.3013,4.60076,2470.553,2023-1-22T16:28:47Z
2023-01-22T14:25:27Z,42.805,6.029,13.3017,4.60074,2470.577,2023-1-22T16:31:50Z
2023-01-22T14:28:30Z,42.805,6.029,13.3015,4.60076,2470.553,2023-1-22T16:34:53Z
2023-01-22T14:31:33Z,42.805,6.029,13.3014,4.60075,2470.577,2023-1-22T16:37:56Z
2023-01-22T14:34:36Z,42.805,6.029,13.3017,4.60073,2470.6,2023-1-22T16:40:59Z
2023-01-22T14:37:39Z,42.805,6.029,13.3016,4.60074,2470.6,2023-1-22T16:44:02Z
2023-01-22T14:40:42Z,42.805,6.029,13.3014,4.60076,2470.577,2023-1-22T16:47:06Z
2023-01-22T14:43:45Z,42.805,6.029,13.3019,4.60076,2470.637,2023-1-22T16:50:09Z
2023-01-22T14:46:49Z,42.805,6.029,13.3019,4.60076,2470.553,2023-1-22T16:53:12Z
2023-01-22T14:49:52Z,42.805,6.029,13.3020,4.60077,2470.591,2023-1-22T16:56:15Z
2023-01-22T14:52:55Z,42.805,6.029,13.3019,4.60075,2470.591,2023-1-22T16:59:18Z
2023-01-22T14:55:58Z,42.805,6.029,13.3019,4.60077,2470.553,2023-1-22T17:02:21Z
2023-01-22T14:59:01Z,42.805,6.029,13.3015,4.60076,2470.553,2023-1-22T17:05:24Z
2023-01-22T15:02:04Z,42.805,6.029,13.3013,4.60076,2470.553,2023-1-22T17:08:27Z
2023-01-22T15:05:07Z,42.805,6.029,13.3019,4.60074,2470.577,2023-1-22T17:11:30Z
2023-01-22T15:08:10Z,42.805,6.029,13.3019,4.60075,2470.553,2023-1-22T17:14:33Z
2023-01-22T15:11:13Z,42.805,6.029,13.3018,4.60074,2470.553,2023-1-22T17:17:37Z
2023-01-22T15:14:16Z,42.805,6.029,13.3015,4.60075,2470.553,2023-1-22T17:20:40Z